Time,TemperatureF,DewpointF,PressureIn,WindDirection,WindDirectionDegrees,WindSpeedMPH,WindSpeedGustMPH,Humidity,HourlyPrecipIn,Conditions,Clouds,dailyrainin,SoftwareType,DateUTC
2013-08-13 00:10:00,69.8,68.0,29.86,NE,51,0.0,-999.0,94,-99.99,,,0.30,weatherlink.com 1.10,2013-08-13 04:10:00,
2013-08-13 00:25:00,69.3,68.0,29.87,NE,51,2.0,-999.0,96,-99.99,,,0.31,weatherlink.com 1.10,2013-08-13 04:25:00,
2013-08-13 00:41:00,68.6,68.0,29.87,NE,51,0.0,-999.0,97,-99.99,,,0.31,weatherlink.com 1.10,2013-08-13 04:41:00,
2013-08-13 00:56:00,68.4,68.0,29.87,NE,51,0.0,-999.0,97,-99.99,,,0.31,weatherlink.com 1.10,2013-08-13 04:56:00,
2013-08-13 01:11:00,68.4,68.0,29.86,NE,51,0.0,-999.0,97,-99.99,,,0.31,weatherlink.com 1.10,2013-08-13 05:11:00,
2013-08-13 01:26:00,68.3,68.0,29.86,NE,51,0.0,-999.0,98,-99.99,,,0.31,weatherlink.com 1.10,2013-08-13 05:26:00,
2013-08-13 01:41:00,68.2,68.0,29.85,NE,51,0.0,-999.0,98,-99.99,,,0.00,weatherlink.com 1.10,2013-08-13 05:41:00,
2013-08-13 01:56:00,68.1,68.0,29.85,NE,51,0.0,-999.0,98,-99.99,,,0.00,weatherlink.com 1.10,2013-08-13 05:56:00,
2013-08-13 02:11:00,68.1,68.0,29.84,NE,49,2.0,-999.0,98,-99.99,,,0.00,weatherlink.com 1.10,2013-08-13 06:11:00,
2013-08-13 02:26:00,67.8,67.0,29.84,NE,41,0.0,-999.0,98,-99.99,,,0.00,weatherlink.com 1.10,2013-08-13 06:26:00,
2013-08-13 02:41:00,67.6,67.0,29.83,NE,41,2.0,-999.0,98,-99.99,,,0.00,weatherlink.com 1.10,2013-08-13 06:41:00,
2013-08-13 02:56:00,67.6,67.0,29.83,WSW,244,0.0,-999.0,98,-99.99,,,0.00,weatherlink.com 1.10,2013-08-13 06:56:00,
2013-08-13 03:11:00,67.4,67.0,29.83,WSW,244,0.0,-999.0,98,-99.99,,,0.00,weatherlink.com 1.10,2013-08-13 07:11:00,
2013-08-13 03:26:00,67.5,67.0,29.83,WNW,286,0.0,-999.0,98,-99.99,,,0.00,weatherlink.com 1.10,2013-08-13 07:26:00,
2013-08-13 03:41:00,67.4,67.0,29.83,West,275,0.0,-999.0,98,-99.99,,,0.00,weatherlink.com 1.10,2013-08-13 07:41:00,
2013-08-13 03:56:00,67.2,67.0,29.84,West,275,2.0,-999.0,98,-99.99,,,0.00,weatherlink.com 1.10,2013-08-13 07:56:00,
2013-08-13 04:11:00,67.1,67.0,29.84,North,355,2.0,-999.0,98,-99.99,,,0.00,weatherlink.com 1.10,2013-08-13 08:11:00,
2013-08-13 04:26:00,67.0,67.0,29.85,NNW,341,4.0,-999.0,98,-99.99,,,0.00,weatherlink.com 1.10,2013-08-13 08:26:00,
2013-08-13 04:41:00,66.8,67.0,29.84,NNW,347,0.0,-999.0,99,-99.99,,,0.00,weatherlink.com 1.10,2013-08-13 08:41:00,
2013-08-13 04:56:00,66.4,66.0,29.85,NNW,348,2.0,-999.0,99,-99.99,,,0.00,weatherlink.com 1.10,2013-08-13 08:56:00,
2013-08-13 05:11:00,65.8,66.0,29.86,NNW,348,2.0,-999.0,99,-99.99,,,0.00,weatherlink.com 1.10,2013-08-13 09:11:00,
2013-08-13 05:26:00,65.3,65.0,29.86,NNW,348,2.0,-999.0,99,-99.99,,,0.00,weatherlink.com 1.10,2013-08-13 09:26:00,
2013-08-13 05:41:00,64.9,65.0,29.86,NNW,348,1.0,-999.0,99,-99.99,,,0.00,weatherlink.com 1.10,2013-08-13 09:41:00,
2013-08-13 05:56:00,64.7,64.0,29.86,NNW,348,0.0,-999.0,98,-99.99,,,0.00,weatherlink.com 1.10,2013-08-13 09:56:00,
2013-08-13 06:11:00,64.4,64.0,29.86,NNW,348,0.0,-999.0,98,-99.99,,,0.00,weatherlink.com 1.10,2013-08-13 10:11:00,
2013-08-13 06:26:00,64.2,64.0,29.87,NNW,348,0.0,-999.0,99,-99.99,,,0.00,weatherlink.com 1.10,2013-08-13 10:26:00,
2013-08-13 06:41:00,64.0,64.0,29.88,NNW,348,0.0,-999.0,98,-99.99,,,0.00,weatherlink.com 1.10,2013-08-13 10:41:00,
2013-08-13 06:56:00,64.0,64.0,29.89,NNW,348,0.0,-999.0,99,-99.99,,,0.00,weatherlink.com 1.10,2013-08-13 10:56:00,
2013-08-13 07:11:00,64.4,64.0,29.90,NNW,348,2.0,-999.0,99,-99.99,,,0.00,weatherlink.com 1.10,2013-08-13 11:11:00,
2013-08-13 07:26:00,64.7,64.0,29.90,NNE,13,3.0,-999.0,99,-99.99,,,0.00,weatherlink.com 1.10,2013-08-13 11:26:00,
2013-08-13 07:41:00,64.9,65.0,29.91,North,355,3.0,-999.0,99,-99.99,,,0.00,weatherlink.com 1.10,2013-08-13 11:41:00,
2013-08-13 07:56:00,65.1,65.0,29.91,NNE,13,2.0,-999.0,98,-99.99,,,0.00,weatherlink.com 1.10,2013-08-13 11:56:00,
2013-08-13 08:11:00,65.0,64.0,29.92,NE,45,3.0,-999.0,97,-99.99,,,0.00,weatherlink.com 1.10,2013-08-13 12:11:00,
2013-08-13 08:26:00,65.1,64.0,29.91,North,9,3.0,-999.0,96,-99.99,,,0.00,weatherlink.com 1.10,2013-08-13 12:26:00,
2013-08-13 08:41:00,65.5,64.0,29.92,North,355,9.0,-999.0,95,-99.99,,,0.00,weatherlink.com 1.10,2013-08-13 12:41:00,
2013-08-13 08:56:00,65.4,63.0,29.92,North,5,2.0,-999.0,93,-99.99,,,0.00,weatherlink.com 1.10,2013-08-13 12:56:00,
2013-08-13 09:11:00,65.9,64.0,29.93,NE,34,5.0,-999.0,92,-99.99,,,0.00,weatherlink.com 1.10,2013-08-13 13:11:00,
2013-08-13 09:26:00,66.3,63.0,29.94,NE,34,2.0,-999.0,90,-99.99,,,0.00,weatherlink.com 1.10,2013-08-13 13:26:00,
2013-08-13 09:41:00,66.7,63.0,29.94,NNW,346,8.0,-999.0,87,-99.99,,,0.00,weatherlink.com 1.10,2013-08-13 13:41:00,
2013-08-13 09:56:00,67.4,63.0,29.94,ENE,57,3.0,-999.0,85,-99.99,,,0.00,weatherlink.com 1.10,2013-08-13 13:56:00,
2013-08-13 10:11:00,67.6,61.0,29.95,NE,39,2.0,-999.0,79,-99.99,,,0.00,weatherlink.com 1.10,2013-08-13 14:11:00,
2013-08-13 10:26:00,67.6,60.0,29.95,NNE,29,7.0,-999.0,77,-99.99,,,0.00,weatherlink.com 1.10,2013-08-13 14:26:00,
2013-08-13 10:42:00,67.9,59.0,29.96,NE,54,6.0,-999.0,74,-99.99,,,0.00,weatherlink.com 1.10,2013-08-13 14:42:00,
2013-08-13 10:57:00,68.1,60.0,29.97,NE,47,3.0,-999.0,76,-99.99,,,0.00,weatherlink.com 1.10,2013-08-13 14:57:00,
2013-08-13 11:12:00,68.1,60.0,29.98,NE,48,4.0,-999.0,74,-99.99,,,0.00,weatherlink.com 1.10,2013-08-13 15:12:00,
2013-08-13 11:27:00,68.2,60.0,29.98,NNE,17,5.0,-999.0,75,-99.99,,,0.00,weatherlink.com 1.10,2013-08-13 15:27:00,
2013-08-13 11:42:00,67.9,60.0,29.99,NE,40,4.0,-999.0,75,-99.99,,,0.00,weatherlink.com 1.10,2013-08-13 15:42:00,
2013-08-13 11:57:00,68.5,61.0,29.99,NNW,346,10.0,-999.0,76,-99.99,,,0.00,weatherlink.com 1.10,2013-08-13 15:57:00,
2013-08-13 12:12:00,67.4,60.0,29.99,NNW,338,9.0,-999.0,78,-99.99,,,0.00,weatherlink.com 1.10,2013-08-13 16:12:00,
2013-08-13 12:27:00,67.5,61.0,30.00,North,355,10.0,-999.0,79,-99.99,,,0.00,weatherlink.com 1.10,2013-08-13 16:27:00,
2013-08-13 12:42:00,67.9,60.0,30.00,NNW,344,5.0,-999.0,76,-99.99,,,0.00,weatherlink.com 1.10,2013-08-13 16:42:00,
2013-08-13 12:57:00,67.7,60.0,30.00,WNW,302,4.0,-999.0,76,-99.99,,,0.00,weatherlink.com 1.10,2013-08-13 16:57:00,
2013-08-13 13:27:00,69.4,62.0,30.00,ENE,69,3.0,-999.0,76,-99.99,,,0.00,weatherlink.com 1.10,2013-08-13 17:27:00,
2013-08-13 13:42:00,69.5,60.0,30.01,NNW,347,4.0,-999.0,71,-99.99,,,0.00,weatherlink.com 1.10,2013-08-13 17:42:00,
2013-08-13 13:57:00,69.7,61.0,30.00,NNW,348,0.0,-999.0,74,-99.99,,,0.00,weatherlink.com 1.10,2013-08-13 17:57:00,
2013-08-13 14:12:00,69.9,60.0,30.00,WSW,254,2.0,-999.0,71,-99.99,,,0.00,weatherlink.com 1.10,2013-08-13 18:12:00,
2013-08-13 14:27:00,71.3,60.0,30.00,ENE,66,2.0,-999.0,68,-99.99,,,0.00,weatherlink.com 1.10,2013-08-13 18:27:00,
2013-08-13 14:43:00,70.8,60.0,30.00,NNE,24,4.0,-999.0,69,-99.99,,,0.00,weatherlink.com 1.10,2013-08-13 18:43:00,
2013-08-13 14:57:00,70.5,59.0,30.00,NNW,336,3.0,-999.0,66,-99.99,,,0.00,weatherlink.com 1.10,2013-08-13 18:57:00,
2013-08-13 15:12:00,71.2,59.0,30.00,NW,322,7.0,-999.0,65,-99.99,,,0.00,weatherlink.com 1.10,2013-08-13 19:12:00,
2013-08-13 15:27:00,71.7,60.0,30.00,NNW,346,5.0,-999.0,67,-99.99,,,0.00,weatherlink.com 1.10,2013-08-13 19:27:00,
2013-08-13 15:42:00,70.5,60.0,30.00,North,360,3.0,-999.0,70,-99.99,,,0.00,weatherlink.com 1.10,2013-08-13 19:42:00,
2013-08-13 15:57:00,70.2,58.0,30.00,NNW,346,15.0,-999.0,65,-99.99,,,0.00,weatherlink.com 1.10,2013-08-13 19:57:00,
2013-08-13 16:12:00,70.8,58.0,30.01,NNE,24,4.0,-999.0,64,-99.99,,,0.00,weatherlink.com 1.10,2013-08-13 20:12:00,
2013-08-13 16:27:00,70.1,58.0,30.01,North,355,7.0,-999.0,66,-99.99,,,0.00,weatherlink.com 1.10,2013-08-13 20:27:00,
2013-08-13 16:42:00,70.0,56.0,30.00,North,360,10.0,-999.0,62,-99.99,,,0.00,weatherlink.com 1.10,2013-08-13 20:42:00,
2013-08-13 16:57:00,70.1,55.0,30.00,NNW,346,6.0,-999.0,59,-99.99,,,0.00,weatherlink.com 1.10,2013-08-13 20:57:00,
2013-08-13 17:12:00,68.8,55.0,30.01,North,355,4.0,-999.0,61,-99.99,,,0.00,weatherlink.com 1.10,2013-08-13 21:12:00,
2013-08-13 17:27:00,69.8,53.0,30.01,NE,36,6.0,-999.0,55,-99.99,,,0.00,weatherlink.com 1.10,2013-08-13 21:27:00,
2013-08-13 17:42:00,69.3,54.0,30.01,North,5,3.0,-999.0,58,-99.99,,,0.00,weatherlink.com 1.10,2013-08-13 21:42:00,
2013-08-13 17:57:00,69.7,53.0,30.01,NNE,18,3.0,-999.0,55,-99.99,,,0.00,weatherlink.com 1.10,2013-08-13 21:57:00,
2013-08-13 18:12:00,69.4,52.0,30.01,North,355,6.0,-999.0,55,-99.99,,,0.00,weatherlink.com 1.10,2013-08-13 22:12:00,
2013-08-13 18:27:00,68.3,52.0,30.01,NNE,28,2.0,-999.0,57,-99.99,,,0.00,weatherlink.com 1.10,2013-08-13 22:27:00,
2013-08-13 18:42:00,67.8,52.0,30.01,NE,34,5.0,-999.0,58,-99.99,,,0.00,weatherlink.com 1.10,2013-08-13 22:42:00,
2013-08-13 18:57:00,67.2,52.0,30.01,North,5,2.0,-999.0,59,-99.99,,,0.00,weatherlink.com 1.10,2013-08-13 22:57:00,
2013-08-13 19:12:00,67.3,53.0,30.01,NNE,30,4.0,-999.0,60,-99.99,,,0.00,weatherlink.com 1.10,2013-08-13 23:12:00,
2013-08-13 19:27:00,67.3,52.0,30.01,NE,36,7.0,-999.0,59,-99.99,,,0.00,weatherlink.com 1.10,2013-08-13 23:27:00,
2013-08-13 19:42:00,66.7,54.0,30.01,NNE,28,2.0,-999.0,63,-99.99,,,0.00,weatherlink.com 1.10,2013-08-13 23:42:00,
2013-08-13 19:57:00,66.0,54.0,30.02,NNE,24,2.0,-999.0,65,-99.99,,,0.00,weatherlink.com 1.10,2013-08-13 23:57:00,
2013-08-13 20:12:00,64.8,54.0,30.02,North,5,4.0,-999.0,67,-99.99,,,0.00,weatherlink.com 1.10,2013-08-14 00:12:00,
2013-08-13 20:27:00,63.7,54.0,30.02,North,355,1.0,-999.0,71,-99.99,,,0.00,weatherlink.com 1.10,2013-08-14 00:27:00,
2013-08-13 20:42:00,62.8,54.0,30.02,NNW,344,6.0,-999.0,73,-99.99,,,0.00,weatherlink.com 1.10,2013-08-14 00:42:00,
2013-08-13 20:57:00,62.0,54.0,30.03,NNW,348,2.0,-999.0,75,-99.99,,,0.00,weatherlink.com 1.10,2013-08-14 00:57:00,
2013-08-13 21:12:00,61.1,54.0,30.03,North,350,0.0,-999.0,78,-99.99,,,0.00,weatherlink.com 1.10,2013-08-14 01:12:00,
2013-08-13 21:27:00,60.1,54.0,30.04,NNW,348,4.0,-999.0,80,-99.99,,,0.00,weatherlink.com 1.10,2013-08-14 01:27:00,
2013-08-13 21:43:00,59.6,54.0,30.04,North,350,2.0,-999.0,81,-99.99,,,0.00,weatherlink.com 1.10,2013-08-14 01:43:00,
2013-08-13 21:58:00,59.2,54.0,30.05,North,350,0.0,-999.0,82,-99.99,,,0.00,weatherlink.com 1.10,2013-08-14 01:58:00,
2013-08-13 22:13:00,58.7,54.0,30.05,North,350,0.0,-999.0,83,-99.99,,,0.00,weatherlink.com 1.10,2013-08-14 02:13:00,
2013-08-13 22:28:00,58.3,54.0,30.06,North,350,0.0,-999.0,84,-99.99,,,0.00,weatherlink.com 1.10,2013-08-14 02:28:00,
2013-08-13 22:43:00,58.1,53.0,30.07,North,350,0.0,-999.0,83,-99.99,,,0.00,weatherlink.com 1.10,2013-08-14 02:43:00,
2013-08-13 22:58:00,57.8,52.0,30.07,North,350,0.0,-999.0,82,-99.99,,,0.00,weatherlink.com 1.10,2013-08-14 02:58:00,
2013-08-13 23:13:00,57.5,52.0,30.07,North,350,1.0,-999.0,82,-99.99,,,0.00,weatherlink.com 1.10,2013-08-14 03:13:00,
2013-08-13 23:28:00,57.3,52.0,30.08,North,350,1.0,-999.0,82,-99.99,,,0.00,weatherlink.com 1.10,2013-08-14 03:28:00,
2013-08-13 23:43:00,57.4,51.0,30.08,North,350,1.0,-999.0,80,-99.99,,,0.00,weatherlink.com 1.10,2013-08-14 03:43:00,
2013-08-13 23:58:00,57.3,51.0,30.08,North,350,0.0,-999.0,80,-99.99,,,0.00,weatherlink.com 1.10,2013-08-14 03:58:00,